User: anonymous   Login
Location: Unspecified
(0.0000°N, 0.0000°E)
Time: 12:15:59
(UTC+02:00)
Language:

Iridium 15 - Orbit

View from above orbital plane
View from above orbital plane
View from above satellite
View from above satellite

Ground track
Ground track

The orbit data is extracted from the following two-line orbital elements,

1 24869U 97034A   16207.34621457  .00000160  00000-0  50010-4 0  9997
2 24869  86.3992 158.7424 0002186  79.0692 281.0750 14.34217954997063
Epoch (UTC): 25 July 2016 08:18:32
Eccentricity: 0.0002186
inclination: 86.3992°
perigee height: 776 km
apogee height: 779 km
right ascension of ascending node: 158.7424°
argument of perigee: 79.0692°
revolutions per day: 14.34217954
mean anomaly at epoch: 281.0750°
orbit number at epoch: 99706

The dashed part of the orbit path shows where the satellite is in the earth's shadow,  

DLR